TimeEST,TemperatureF,Dew PointF,Humidity,Sea Level PressureIn,VisibilityMPH,Wind Direction,Wind SpeedMPH,Gust SpeedMPH,PrecipitationIn,Events,Conditions,WindDirDegrees,DateUTC
12:53 AM,68.0,64.0,87,30.21,10.0,East,10.4,-,N/A,,Clear,100,2012-11-12 05:53:00
1:53 AM,66.9,64.0,90,30.21,10.0,East,8.1,-,N/A,,Partly Cloudy,80,2012-11-12 06:53:00
2:53 AM,66.9,64.9,93,30.20,10.0,NE,6.9,-,N/A,,Scattered Clouds,40,2012-11-12 07:53:00
3:53 AM,66.9,64.0,90,30.19,10.0,ENE,6.9,-,N/A,,Scattered Clouds,60,2012-11-12 08:53:00
4:53 AM,66.9,64.0,90,30.18,10.0,ENE,8.1,-,N/A,,Clear,60,2012-11-12 09:53:00
5:53 AM,66.0,64.0,93,30.19,10.0,NE,5.8,-,N/A,,Mostly Cloudy,50,2012-11-12 10:53:00
6:53 AM,66.0,64.0,93,30.20,10.0,NNE,3.5,-,N/A,,Mostly Cloudy,30,2012-11-12 11:53:00
7:53 AM,66.9,64.9,93,30.22,10.0,NNE,4.6,-,N/A,,Partly Cloudy,30,2012-11-12 12:53:00
8:53 AM,69.1,64.9,87,30.23,10.0,ENE,5.8,-,N/A,,Clear,60,2012-11-12 13:53:00
9:53 AM,71.1,66.0,84,30.24,10.0,NE,4.6,-,N/A,,Clear,50,2012-11-12 14:53:00
10:53 AM,73.9,66.9,79,30.23,10.0,NE,4.6,-,N/A,,Clear,50,2012-11-12 15:53:00
11:53 AM,75.9,66.9,74,30.21,10.0,ENE,3.5,-,N/A,,Clear,60,2012-11-12 16:53:00
12:53 PM,78.1,68.0,71,30.18,10.0,ENE,4.6,-,N/A,,Clear,70,2012-11-12 17:53:00
1:53 PM,79.0,64.9,62,30.16,10.0,ENE,5.8,-,N/A,,Clear,60,2012-11-12 18:53:00
2:53 PM,80.1,64.9,60,30.15,10.0,ENE,4.6,-,N/A,,Scattered Clouds,60,2012-11-12 19:53:00
3:53 PM,79.0,66.0,64,30.14,10.0,ENE,5.8,-,N/A,,Clear,70,2012-11-12 20:53:00
4:53 PM,75.0,68.0,79,30.14,10.0,East,5.8,-,N/A,,Clear,80,2012-11-12 21:53:00
5:53 PM,75.0,66.9,76,30.14,10.0,NE,8.1,-,N/A,,Mostly Cloudy,40,2012-11-12 22:53:00
6:53 PM,75.0,64.9,71,30.15,10.0,NNE,9.2,-,N/A,,Overcast,20,2012-11-12 23:53:00
7:53 PM,73.9,66.9,79,30.17,10.0,ENE,9.2,-,N/A,,Mostly Cloudy,70,2012-11-13 00:53:00
8:53 PM,72.0,68.0,87,30.18,10.0,East,8.1,-,N/A,,Overcast,80,2012-11-13 01:53:00
9:53 PM,71.1,66.9,87,30.18,10.0,SE,3.5,-,N/A,,Mostly Cloudy,140,2012-11-13 02:53:00
10:53 PM,71.1,66.9,87,30.17,10.0,Calm,Calm,-,N/A,,Scattered Clouds,0,2012-11-13 03:53:00
11:53 PM,71.1,68.0,90,30.16,10.0,NNE,3.5,-,N/A,,Overcast,30,2012-11-13 04:53:00